TimeCST,TemperatureF,Dew PointF,Humidity,Sea Level PressureIn,VisibilityMPH,Wind Direction,Wind SpeedMPH,Gust SpeedMPH,PrecipitationIn,Events,Conditions,WindDirDegrees,DateUTC
12:15 AM,37.4,35.6,93,29.91,10.0,WNW,10.4,-,N/A,,Overcast,300,2013-11-18 06:15:00
12:35 AM,37.4,35.6,93,29.92,10.0,WNW,10.4,-,N/A,,Overcast,300,2013-11-18 06:35:00
12:55 AM,37.4,35.6,93,29.93,10.0,NW,9.2,-,N/A,,Overcast,320,2013-11-18 06:55:00
1:15 AM,37.4,33.8,87,29.93,10.0,NW,10.4,-,N/A,,Mostly Cloudy,320,2013-11-18 07:15:00
1:35 AM,37.4,33.8,87,29.93,10.0,NW,11.5,-,N/A,,Overcast,320,2013-11-18 07:35:00
1:55 AM,37.4,33.8,87,29.94,10.0,NNW,9.2,-,N/A,,Overcast,330,2013-11-18 07:55:00
2:15 AM,35.6,32.0,87,29.95,10.0,NNW,11.5,19.6,N/A,,Mostly Cloudy,330,2013-11-18 08:15:00
2:35 AM,33.8,32.0,93,29.96,10.0,NW,12.7,19.6,N/A,,Clear,320,2013-11-18 08:35:00
2:55 AM,33.8,30.2,87,29.97,10.0,WNW,11.5,-,N/A,,Partly Cloudy,300,2013-11-18 08:55:00
3:15 AM,33.8,30.2,87,29.98,10.0,WNW,13.8,-,N/A,,Mostly Cloudy,290,2013-11-18 09:15:00
3:35 AM,33.8,30.2,87,29.98,10.0,WNW,12.7,18.4,N/A,,Overcast,300,2013-11-18 09:35:00
3:55 AM,32.0,30.2,93,29.99,10.0,WNW,12.7,-,N/A,,Scattered Clouds,290,2013-11-18 09:55:00
4:15 AM,32.0,30.2,93,30.00,10.0,WNW,13.8,-,N/A,,Partly Cloudy,290,2013-11-18 10:15:00
4:35 AM,32.0,30.2,93,30.01,10.0,WNW,12.7,-,N/A,,Scattered Clouds,290,2013-11-18 10:35:00
4:55 AM,32.0,30.2,93,30.01,10.0,WNW,11.5,-,N/A,,Scattered Clouds,290,2013-11-18 10:55:00
5:15 AM,32.0,30.2,93,30.02,10.0,WNW,10.4,-,N/A,,Clear,300,2013-11-18 11:15:00
5:35 AM,30.2,30.2,100,30.02,10.0,WNW,11.5,-,N/A,,Clear,300,2013-11-18 11:35:00
5:55 AM,30.2,30.2,100,30.03,10.0,WNW,10.4,-,N/A,,Clear,300,2013-11-18 11:55:00
6:15 AM,30.2,30.2,100,30.05,10.0,NW,10.4,16.1,N/A,,Partly Cloudy,310,2013-11-18 12:15:00
6:35 AM,30.2,28.4,93,30.05,10.0,NW,9.2,-,N/A,,Scattered Clouds,310,2013-11-18 12:35:00
6:55 AM,30.2,28.4,93,30.06,9.0,NW,9.2,-,N/A,,Clear,310,2013-11-18 12:55:00
7:15 AM,28.4,28.4,100,30.07,7.0,WNW,6.9,-,N/A,,Clear,300,2013-11-18 13:15:00
7:35 AM,28.4,28.4,100,30.08,6.0,NW,8.1,-,N/A,,Clear,310,2013-11-18 13:35:00
7:55 AM,30.2,28.4,93,30.09,8.0,NW,9.2,-,N/A,,Clear,310,2013-11-18 13:55:00
8:15 AM,30.2,28.4,93,30.10,8.0,NW,10.4,-,N/A,,Clear,320,2013-11-18 14:15:00
8:35 AM,32.0,28.4,87,30.11,8.0,NW,12.7,-,N/A,,Clear,320,2013-11-18 14:35:00
8:55 AM,32.0,26.6,80,30.13,10.0,NW,13.8,20.7,N/A,,Clear,320,2013-11-18 14:55:00
9:15 AM,32.0,26.6,80,30.14,10.0,NNW,19.6,26.5,N/A,,Clear,330,2013-11-18 15:15:00
9:35 AM,33.8,26.6,75,30.15,10.0,NW,16.1,23.0,N/A,,Partly Cloudy,320,2013-11-18 15:35:00
9:55 AM,33.8,26.6,75,30.17,10.0,NW,17.3,-,N/A,,Partly Cloudy,310,2013-11-18 15:55:00
10:15 AM,33.8,26.6,75,30.17,10.0,NW,15.0,-,N/A,,Partly Cloudy,310,2013-11-18 16:15:00
10:35 AM,35.6,26.6,70,30.18,10.0,NW,13.8,20.7,N/A,,Scattered Clouds,320,2013-11-18 16:35:00
10:55 AM,35.6,26.6,70,30.19,10.0,NW,11.5,19.6,N/A,,Partly Cloudy,310,2013-11-18 16:55:00
11:15 AM,35.6,28.4,75,30.19,10.0,NW,13.8,20.7,N/A,,Partly Cloudy,310,2013-11-18 17:15:00
11:35 AM,37.4,28.4,70,30.19,10.0,NW,13.8,20.7,N/A,,Clear,320,2013-11-18 17:35:00
11:55 AM,37.4,26.6,65,30.18,10.0,NW,13.8,20.7,N/A,,Clear,320,2013-11-18 17:55:00
12:15 PM,39.2,28.4,65,30.18,10.0,NW,15.0,-,N/A,,Clear,320,2013-11-18 18:15:00
12:35 PM,39.2,28.4,65,30.18,10.0,NW,10.4,17.3,N/A,,Clear,320,2013-11-18 18:35:00
12:55 PM,39.2,28.4,65,30.18,10.0,NW,10.4,16.1,N/A,,Clear,310,2013-11-18 18:55:00
1:15 PM,39.2,28.4,65,30.18,10.0,NW,10.4,18.4,N/A,,Clear,320,2013-11-18 19:15:00
1:35 PM,41.0,28.4,61,30.18,10.0,NW,12.7,-,N/A,,Clear,310,2013-11-18 19:35:00
1:55 PM,41.0,28.4,61,30.18,10.0,NNW,11.5,-,N/A,,Clear,330,2013-11-18 19:55:00
2:15 PM,41.0,28.4,61,30.18,10.0,NW,10.4,-,N/A,,Clear,320,2013-11-18 20:15:00
2:35 PM,42.8,28.4,57,30.18,9.0,NNW,8.1,-,N/A,,Clear,330,2013-11-18 20:35:00
2:55 PM,42.8,26.6,53,30.18,10.0,NW,10.4,-,N/A,,Clear,310,2013-11-18 20:55:00
3:15 PM,42.8,26.6,53,30.18,10.0,NNW,9.2,-,N/A,,Clear,340,2013-11-18 21:15:00
3:35 PM,42.8,26.6,53,30.18,10.0,NNW,8.1,-,N/A,,Clear,340,2013-11-18 21:35:00
3:55 PM,42.8,28.4,57,30.18,10.0,North,4.6,-,N/A,,Clear,350,2013-11-18 21:55:00
4:15 PM,41.0,28.4,61,30.19,10.0,Calm,Calm,-,N/A,,Clear,0,2013-11-18 22:15:00
4:35 PM,41.0,28.4,61,30.19,10.0,Calm,Calm,-,N/A,,Clear,0,2013-11-18 22:35:00
4:55 PM,39.2,28.4,65,30.19,10.0,Calm,Calm,-,N/A,,Clear,0,2013-11-18 22:55:00
5:15 PM,39.2,28.4,65,30.19,10.0,NNE,3.5,-,N/A,,Clear,20,2013-11-18 23:15:00
5:35 PM,37.4,28.4,70,30.20,10.0,ENE,3.5,-,N/A,,Clear,70,2013-11-18 23:35:00
5:55 PM,37.4,28.4,70,30.20,10.0,East,3.5,-,N/A,,Clear,100,2013-11-18 23:55:00
6:15 PM,37.4,26.6,65,30.20,10.0,East,3.5,-,N/A,,Clear,90,2013-11-19 00:15:00
6:35 PM,35.6,28.4,75,30.20,10.0,East,4.6,-,N/A,,Clear,90,2013-11-19 00:35:00
6:55 PM,33.8,26.6,75,30.21,10.0,SE,3.5,-,N/A,,Clear,140,2013-11-19 00:55:00
7:15 PM,32.0,26.6,80,30.21,10.0,SE,3.5,-,N/A,,Clear,140,2013-11-19 01:15:00
7:35 PM,33.8,28.4,81,30.21,10.0,ESE,4.6,-,N/A,,Clear,120,2013-11-19 01:35:00
7:55 PM,32.0,28.4,87,30.22,10.0,ESE,4.6,-,N/A,,Clear,120,2013-11-19 01:55:00
8:15 PM,33.8,28.4,81,30.22,10.0,East,4.6,-,N/A,,Clear,100,2013-11-19 02:15:00
8:35 PM,30.2,26.6,86,30.23,10.0,SE,4.6,-,N/A,,Clear,130,2013-11-19 02:35:00
8:55 PM,30.2,28.4,93,30.23,10.0,SE,4.6,-,N/A,,Clear,130,2013-11-19 02:55:00
9:15 PM,32.0,28.4,87,30.23,10.0,SE,4.6,-,N/A,,Clear,140,2013-11-19 03:15:00
9:35 PM,30.2,28.4,93,30.23,10.0,SE,4.6,-,N/A,,Clear,130,2013-11-19 03:35:00
9:55 PM,30.2,28.4,93,30.23,10.0,SE,5.8,-,N/A,,Clear,130,2013-11-19 03:55:00
10:15 PM,30.2,28.4,93,30.23,10.0,SE,6.9,-,N/A,,Clear,130,2013-11-19 04:15:00
10:35 PM,32.0,28.4,87,30.23,10.0,SE,5.8,-,N/A,,Clear,130,2013-11-19 04:35:00
10:55 PM,30.2,26.6,86,30.23,10.0,SE,5.8,-,N/A,,Clear,130,2013-11-19 04:55:00
11:15 PM,30.2,26.6,86,30.23,10.0,SE,8.1,-,N/A,,Clear,130,2013-11-19 05:15:00
11:35 PM,28.4,26.6,93,30.23,10.0,SE,8.1,-,N/A,,Clear,140,2013-11-19 05:35:00
11:55 PM,30.2,28.4,93,30.22,10.0,ESE,6.9,-,N/A,,Clear,120,2013-11-19 05:55:00